Flag for Canada Weather past 2 weeks in Colchester County, Nova Scotia, Canada

Now
32 °F

Overcast.


Feels Like: 26 °F
Forecast: 24 / 38 °F
Wind: 7 mph from South

Location: Halifax International Airport

Current Time: Dec 28, 2014 at 6:21:32 AM

Latest Report: Dec 28, 2014 at 6:00 AM


Visibility: 15 mi

Pressure: 29.87 "Hg

Humidity: 93%

Dew point: 30 °F

Location of Colchester CountyLocation

Historic Weather in Colchester County — Graph

°F

Colchester County temperature yesterday

Maximum temperature yesterday: 43 °F (at 11:00 AM)
Minimum temperature yesterday: 32 °F (at 11:00 PM)
Average temperature yesterday: 37 °F

Past Weeks' High & Low Weather Summary

 TemperatureHumidityPressure
High61 °F (Dec 25, 12:52 PM)100% (Dec 13, 5:00 AM)30.48 "Hg (Dec 13, 5:00 AM)
Low25 °F (Dec 23, 6:00 AM)49% (Dec 26, 2:00 PM)29.36 "Hg (Dec 18, 3:00 PM)
Average35 °F88%29.94 "Hg
* Reported Dec 13 5:00 AM — Dec 28 5:00 AM, Colchester County, Weather by CustomWeather, © 2014

Note: Actual official high and low records may vary slightly from our data, if they occured in-between our weather recording intervals... More about our weather records

Advertising

Colchester County weather history for previous 24 hours

 ConditionsComfort  
Time TempWeatherWind HumidityBarometerVisibility
5:00 AM
Dec 28
30 °FPassing clouds.8 mph93%29.89 "Hg15 mi
4:00 AM30 °FPassing clouds.9 mph93%29.93 "Hg15 mi
3:00 AM30 °FClear.9 mph86%29.96 "Hg15 mi
2:00 AM30 °FClear.9 mph86%29.96 "Hg15 mi
1:00 AM30 °FPassing clouds.8 mph86%29.98 "Hg15 mi
12:00 AM30 °FPassing clouds.6 mph86%29.99 "Hg15 mi
11:00 PM
Dec 27
32 °FClear.8 mph80%30.02 "Hg15 mi
10:00 PM34 °FPassing clouds.8 mph75%30.03 "Hg15 mi
9:00 PM34 °FPassing clouds.7 mph75%30.03 "Hg15 mi
8:00 PM34 °FClear.8 mph75%30.01 "Hg15 mi
7:00 PM36 °FClear.7 mph70%30.01 "Hg15 mi
6:00 PM37 °FClear.10 mph65%30.01 "Hg15 mi
5:00 PM39 °FPassing clouds.16 mph61%29.98 "Hg15 mi
4:00 PM41 °FPassing clouds.18 mph57%29.97 "Hg15 mi
3:00 PM41 °FPassing clouds.20 mph57%29.94 "Hg14 mi
2:00 PM41 °FPassing clouds.25 mph57%29.93 "Hg15 mi
1:00 PM41 °FScattered clouds.18 mph61%29.94 "Hg15 mi
12:00 PM43 °FPartly sunny.26 mph57%29.95 "Hg15 mi
11:00 AM43 °FPartly sunny.22 mph57%29.96 "Hg15 mi
10:00 AM39 °FScattered clouds.22 mph65%29.97 "Hg15 mi
9:00 AM37 °FPassing clouds.13 mph70%29.95 "Hg15 mi
8:00 AM36 °FScattered clouds.13 mph75%29.94 "Hg15 mi
7:00 AM36 °FPassing clouds.12 mph70%29.93 "Hg15 mi
6:00 AM36 °FPassing clouds.14 mph70%29.92 "Hg15 mi
Weather by CustomWeather, © 2014

See weather overviewHow to use our weather pages